DELTA 1 DEB, 14509

Orbit data source: Space-Track

DELTA 1 DEB, 14509 is space debris in SSO originally from a launch on Thu, 29 Jul 1976 UTC launched from the Air Force Western Test Range (AFWTR). Debris objects in space refer to the collection of defunct objects orbiting the Earth. Examples of debris include non-operational satellites, rocket bodies, and fragments generated from explosions, collisions, or faulty payload assembly.

Loading next visibility...
Identifier
14509, 1976-077EQ
Orbit
SSO
Country
Flag of USUS
Related business
Manufacturer
Unknown
Mission
Spacecraft
Bus & Motor
Unknown
Mass
Unknown
Launch date (UTC)
1976-07-29 (49 years ago)
Launch vehicle
Unknown
Launch site
Air Force Western Test Range (AFWTR)
Object type
Payload
Rocket body
Debris
Shape & HBR
Unknown shape, 0.1 m
Radar Cross Section
Medium (>0.1 m² and <1 m²)

Expand to show TLE details & history
Last TLE update: 4 days ago

TLE from 4 days ago
0 DELTA 1 DEB
1 14509U 76077EQ  25348.50036726  .00000025  00000-0  69600-3 0  9998
2 14509 102.3462 315.4353 0158061 208.4937 273.8821 12.12352770910266
Epoch: 2025-12-14T12:00Z
TLE epoch observation values (Epoch: 2025-12-14T12:00:31.731Z)
Latitude
57.35114°
Longitude
-108.23463°
Altitude
1,628.848 km
Speed
7.065 km/s
True Right ascension
10h 21m 14s
True Declination
57° 12' 42"
Sunlit
Object was in daylight at epoch
Visualization orbit readout
Latitude
Unknown
Longitude
Unknown
Altitude
Unknown
Speed
Unknown
Apparent Right ascension
Unknown
Apparent Declination
Unknown
Sunlit
N/A
Visualization observer readout
Local Sidereal Time
02:01:01
Azimuth
Unknown
Elevation
Unknown
Doppler factor
Unknown
Orbital elements
Apogee altitude
1,750.132 km
Perigee altitude
1,497.178 km
Semi-major axis
8,001.792 km
Eccentricity
0.01581
Inclination
102.3462°
RAAN
315.4353°
Arg. of periapsis
208.4937°
True anomaly
272.07289°
Mean anomaly
273.8821°
Eccentric anomaly
272.9777°
Mean motion
3.03223 °/min
Orbital period
118.72 mins
BSTAR
0.000696
Loading maneuver chart data...
Computing Atmospheric mass density...
Loading historical data...
Loading historical data...
Loading historical data...
Loading historical data...
Loading historical data...
Loading historical data...
Loading historical data...

Documentation

Showing up to 5 results
|